[[{"header":{"parameterUnit":"m.s-1","parameterCategory":1,"la1":30.2991,"la2":30.254,"lo1":-89.0895,"lo2":-89.0444,"dy":0.0017,"dx":0.0017,"nx":28,"ny":28,"refTime":"2024-12-09T03:00:00:Z","depth":0,"parameterNumber":2,"parameterNumberName":"U-component_of_WINDS"},"data":[0,0,0,0,0,0,0,0,0,0,0,0,0,0,0,0,0,0,0,0,0,0,0,0,0,0,0,0,0,0,0,0,0,0,0,0,0,0,0,0,0,0,0,0,0,0,0,0,0,0,0,0,0,0,0,0,0,0,0.5139,0.5139,0,0.5203,0.5204,0.5204,0.521,0.5209,0.5208,0.5208,0.5278,0.5281,0.5283,0,0,0,0,0,0,0,0,0,0,0,0,0,0.5024,0.5026,0.5138,0.5139,0.514,0.5203,0.5204,0.5204,0.521,0.5209,0.5208,0.5207,0.5277,0.528,0.5284,0,0,0,0,0,0,0,0,0,0,0,0,0,0.508,0.5027,0.5138,0.515,0.5152,0.5203,0.5204,0.5205,0.521,0.5209,0.5208,0.5207,0.5276,0.528,0.5284,0.5329,0,0,0.5296,0.5297,0,0,0,0,0,0,0,0,0.5077,0.5084,0.5148,0.5149,0.5151,0.5197,0.5189,0.5247,0.521,0.5188,0.5207,0.5206,0.5252,0.5258,0.5273,0.5332,0.5335,0.5296,0.5298,0.53,0.5301,0,0,0,0,0,0,0,0.5073,0.5081,0.5164,0.5149,0.5151,0.5154,0.516,0.52,0.5226,0.519,0.519,0.5198,0.5253,0.5269,0.5274,0.5336,0.5296,0.5299,0.5302,0.5303,0.5437,0.5438,0,0,0,0,0,0,0.5066,0.5078,0.5162,0.5166,0.511,0.5156,0.5164,0.5184,0.5225,0.523,0.5198,0.5198,0.5263,0.527,0.5277,0.5333,0.53,0.5303,0.5306,0.5435,0.5437,0.5438,0,0,0,0,0,0,0.5064,0.5073,0.5159,0.5122,0.5133,0.5159,0.5181,0.5185,0.5201,0.5232,0.5237,0.521,0.5262,0.5272,0.5316,0.5336,0.5305,0.5309,0.5434,0.5436,0.5438,0.5445,0,0,0,0,0,0,0.506,0.5073,0.5089,0.5122,0.5135,0.5196,0.5183,0.5187,0.5207,0.5207,0.5243,0.5249,0.5262,0.531,0.5319,0.534,0.5312,0.5432,0.5435,0.5437,0.5444,0.5447,0.545,0,0,0,0,0,0.5056,0.5089,0.509,0.51,0.5156,0.5197,0.5204,0.5218,0.5209,0.5226,0.5246,0.5247,0.5331,0.5314,0.5325,0.5348,0.5431,0.5434,0.5437,0.5442,0.5447,0.545,0,0,0,0,0,0,0.5059,0.5094,0.5095,0.514,0.5165,0.5198,0.522,0.5223,0.5253,0.5251,0.5268,0.5277,0.5321,0.5338,0.5319,0.5394,0.5381,0.5386,0.5381,0.5385,0.5389,0.5385,0.5315,0,0,0,0,0,0.5065,0.5094,0.5123,0.516,0.5172,0.5194,0.5212,0.5221,0.5248,0.526,0.5283,0.5311,0.5344,0.5365,0.5397,0.5445,0.5455,0.5466,0.547,0.5472,0.5477,0.5505,0.5511,0.5448,0.5448,0.5448,0,0,0.5077,0.51,0.5118,0.5161,0.5182,0.5213,0.5203,0.5236,0.526,0.5265,0.5308,0.5326,0.5359,0.5405,0.5427,0.5422,0.5496,0.5476,0.5478,0.5481,0.5509,0.5515,0.552,0.545,0.5449,0.5449,0,0,0.5116,0.5135,0.5169,0.5189,0.522,0.5234,0.5242,0.5274,0.5286,0.5329,0.5333,0.5362,0.5418,0.5442,0.5461,0.5508,0.5511,0.5518,0.5537,0.5564,0.5569,0.5574,0.5592,0.5598,0.5522,0.5522,0.5522,0,0.5129,0.5174,0.5186,0.5219,0.5239,0.5242,0.5277,0.5297,0.5337,0.5352,0.5344,0.5414,0.5437,0.5489,0.5501,0.5515,0.5527,0.5515,0.5567,0.5572,0.5577,0.5594,0.5601,0.5523,0.5523,0.5523,0.5523,0,0.5188,0.522,0.5243,0.5281,0.5303,0.5336,0.5354,0.5375,0.5381,0.5397,0.5441,0.5467,0.5505,0.5518,0.5525,0.5572,0.5568,0.5563,0.5551,0.5583,0.56,0.5607,0.5524,0.5524,0.5523,0.5523,0,0,0.5233,0.5275,0.5284,0.5301,0.5335,0.5361,0.5395,0.543,0.5448,0.5476,0.5506,0.5553,0.5549,0.5571,0.558,0.5604,0.5641,0.5597,0.5598,0.5606,0.5697,0.5701,0.5708,0.5643,0.5644,0.5645,0.5694,0,0.5277,0.5336,0.5348,0.54,0.543,0.5434,0.5464,0.5489,0.5504,0.5533,0.555,0.5583,0.5575,0.5588,0.5612,0.5632,0.566,0.5628,0.5673,0.5675,0.5667,0.5717,0.5722,0.5767,0.5701,0.5702,0.5703,0,0.5337,0.5364,0.5419,0.545,0.5463,0.5489,0.5523,0.5549,0.5578,0.5588,0.5611,0.5618,0.5655,0.5639,0.5692,0.567,0.5689,0.5701,0.5704,0.571,0.5692,0.5727,0.5782,0.5789,0.5713,0.5712,0.5712,0,0.5365,0.5416,0.5456,0.547,0.5506,0.5525,0.5541,0.5569,0.5589,0.5619,0.5633,0.5666,0.5686,0.5712,0.5729,0.5715,0.5781,0.5766,0.5791,0.5791,0.5807,0.5806,0.5868,0.5816,0.5815,0.5815,0.5815,0,0.5414,0.5449,0.5469,0.5494,0.5533,0.5545,0.5584,0.56,0.5624,0.5653,0.5659,0.5686,0.5705,0.5735,0.5748,0.5791,0.5799,0.5809,0.5813,0.581,0.5809,0.5824,0.5822,0.5817,0.5817,0.5816,0.5816,0,0.5454,0.5469,0.5513,0.5543,0.5551,0.5578,0.5605,0.563,0.5644,0.5681,0.569,0.5713,0.5749,0.5767,0.5813,0.5822,0.587,0.5871,0.586,0.5862,0.5887,0.5885,0.5963,0.5974,0.5913,0.5913,0.5914,0,0.5485,0.5511,0.5544,0.5563,0.5579,0.5609,0.563,0.5643,0.5665,0.57,0.5721,0.5757,0.5787,0.5845,0.5867,0.5902,0.5905,0.5929,0.591,0.5907,0.5907,0.5906,0.591,0.5933,0.5934,0.5934,0.5935,0,0.554,0.5546,0.5574,0.5606,0.563,0.5656,0.5681,0.5697,0.5715,0.5739,0.5775,0.5798,0.5844,0.588,0.5917,0.5935,0.5939,0.594,0.5948,0.5947,0.594,0.5946,0.5872,0.5939,0.5938,0.5938,0.5938,0.5938,0.5577,0.5601,0.5627,0.5659,0.568,0.5703,0.5728,0.5745,0.5775,0.5812,0.5818,0.5857,0.5886,0.5935,0.5955,0.5987,0.5982,0.5993,0.5996,0.5999,0.6001,0.5933,0.5993,0.5993,0.5993,0.5993,0.5993,0,0.5633,0.565,0.5679,0.5714,0.574,0.5738,0.5766,0.5788,0.5822,0.5848,0.5876,0.5919,0.5954,0.5978,0.6014,0.6035,0.6038,0.6045,0.6044,0.6049,0.6003,0.5993,0.6042,0.6042,0.6042,0.6042,0.6042,0.6042,0.5666,0.5706,0.5715,0.5766,0.5783,0.582,0.5836,0.5859,0.5879,0.5926,0.5954,0.5969,0.5995,0.6033,0.6066,0.6072,0.6086,0.6093,0.61,0.6057,0.6052,0.6047,0.6038,0.6096,0.6096,0.6144,0.6144,0.6144]},{"header":{"parameterUnit":"m.s-1","parameterCategory":1,"la1":30.2991,"la2":30.254,"lo1":-89.0895,"lo2":-89.0444,"dy":0.0017,"dx":0.0017,"nx":28,"ny":28,"refTime":"2024-12-09T03:00:00:Z","depth":0,"parameterNumber":3,"parameterNumberName":"V-component_of_WINDS"},"data":[0,0,0,0,0,0,0,0,0,0,0,0,0,0,0,0,0,0,0,0,0,0,0,0,0,0,0,0,0,0,0,0,0,0,0,0,0,0,0,0,0,0,0,0,0,0,0,0,0,0,0,0,0,0,0,0,0,0,4.0308,4.031,0,4.053,4.0533,4.0535,4.0578,4.0577,4.0575,4.0573,4.0805,4.0812,4.082,0,0,0,0,0,0,0,0,0,0,0,0,0,3.9924,3.9931,4.0307,4.031,4.0313,4.053,4.0533,4.0536,4.0579,4.0577,4.0574,4.0572,4.0802,4.0811,4.0821,0,0,0,0,0,0,0,0,0,0,0,0,0,4.0113,3.9933,4.0307,4.036,4.0367,4.0529,4.0533,4.0537,4.0579,4.0577,4.0574,4.0571,4.0799,4.0811,4.0822,4.0948,0,0,4.0858,4.0863,0,0,0,0,0,0,0,0,4.0102,4.0127,4.035,4.0357,4.0365,4.0524,4.0483,4.0675,4.058,4.0499,4.0573,4.057,4.0714,4.0732,4.078,4.0958,4.0968,4.0859,4.0866,4.0871,4.0874,0,0,0,0,0,0,0,4.0089,4.0118,4.0396,4.0353,4.0362,4.0375,4.0399,4.0519,4.0619,4.0506,4.0509,4.0535,4.0717,4.0769,4.0786,4.0972,4.0859,4.0869,4.0876,4.0881,4.1268,4.1271,0,0,0,0,0,0,4.0066,4.0107,4.0389,4.0402,4.0224,4.0384,4.0411,4.0476,4.0617,4.0636,4.0537,4.0536,4.075,4.0772,4.0794,4.0954,4.0871,4.0882,4.0889,4.1265,4.1269,4.1273,0,0,0,0,0,0,4.0058,4.0091,4.038,4.0256,4.0293,4.0393,4.0466,4.0481,4.0533,4.0641,4.0659,4.0571,4.0749,4.0778,4.091,4.0962,4.0887,4.0898,4.1261,4.1266,4.1271,4.1271,0,0,0,0,0,0,4.0046,4.0087,4.0135,4.0256,4.03,4.049,4.0469,4.0488,4.0552,4.0553,4.0678,4.0696,4.0749,4.0892,4.0921,4.0977,4.0907,4.1257,4.1264,4.1269,4.1267,4.1275,4.1282,0,0,0,0,0,4.0032,4.0126,4.0137,4.0171,4.0361,4.0493,4.0518,4.0576,4.0556,4.0606,4.0676,4.0692,4.0951,4.0905,4.0939,4.0998,4.1254,4.1262,4.1269,4.1263,4.1274,4.1282,0,0,0,0,0,0,4.0009,4.0143,4.0157,4.0292,4.0381,4.05,4.0564,4.0585,4.0682,4.0679,4.0748,4.0776,4.0905,4.0965,4.0911,4.1129,4.1101,4.1116,4.1086,4.1096,4.1104,4.1088,4.0917,0,0,0,0,0,4.0019,4.0114,4.0226,4.0335,4.0379,4.0464,4.0523,4.0561,4.0656,4.0694,4.0774,4.0867,4.097,4.1036,4.1136,4.1275,4.1304,4.1332,4.134,4.1346,4.1359,4.144,4.1455,4.1297,4.1297,4.1296,0,0,4.0042,4.0127,4.0182,4.0332,4.0406,4.0504,4.0495,4.0599,4.0674,4.071,4.0841,4.0902,4.1011,4.1147,4.1212,4.1201,4.1408,4.1355,4.1359,4.1369,4.1449,4.1464,4.1477,4.1302,4.1301,4.13,0,0,4.0135,4.0207,4.0307,4.038,4.0491,4.0548,4.0571,4.0688,4.0731,4.0862,4.0893,4.0983,4.1157,4.1234,4.1296,4.142,4.1439,4.145,4.1492,4.1571,4.1583,4.1595,4.1642,4.1658,4.1462,4.1462,4.1462,0,4.0149,4.0298,4.0356,4.046,4.0526,4.0562,4.0666,4.0735,4.0873,4.0919,4.0904,4.1126,4.1202,4.1359,4.1389,4.1437,4.1469,4.1438,4.1576,4.1589,4.16,4.1646,4.1663,4.1463,4.1463,4.1462,4.1462,0,4.0312,4.0415,4.0482,4.0615,4.0689,4.0791,4.0867,4.0935,4.0966,4.1024,4.1159,4.1251,4.1372,4.1411,4.1442,4.1574,4.1565,4.1562,4.1537,4.1615,4.166,4.1678,4.1464,4.1464,4.1463,4.1463,0,0,4.0397,4.0561,4.0585,4.0647,4.0773,4.0854,4.0959,4.1077,4.1136,4.123,4.1322,4.1469,4.1469,4.1539,4.1579,4.1648,4.1744,4.1638,4.1642,4.1657,4.1899,4.1902,4.1921,4.1756,4.176,4.1763,4.1891,0,4.0507,4.0696,4.0752,4.0911,4.1009,4.1045,4.1138,4.1226,4.1283,4.1376,4.144,4.1544,4.1534,4.1577,4.1646,4.1717,4.1794,4.1708,4.1846,4.185,4.1821,4.1944,4.1947,4.2064,4.1908,4.1911,4.1913,0,4.0661,4.0758,4.0927,4.1043,4.1086,4.1168,4.1282,4.1368,4.147,4.1507,4.1586,4.1621,4.1735,4.1701,4.1861,4.1801,4.1861,4.1904,4.191,4.1928,4.1888,4.1968,4.2102,4.212,4.1941,4.1938,4.1936,0,4.071,4.0883,4.1008,4.1059,4.1196,4.1253,4.1313,4.1412,4.148,4.1579,4.1625,4.1736,4.1798,4.1885,4.195,4.1918,4.2105,4.2075,4.2142,4.2141,4.2182,4.2179,4.2331,4.2214,4.2214,4.2214,4.2213,0,4.0829,4.0932,4.1032,4.1109,4.1226,4.129,4.1405,4.1466,4.1554,4.1646,4.1683,4.1768,4.1847,4.1944,4.1995,4.2122,4.2148,4.2184,4.2197,4.2182,4.2178,4.2225,4.2219,4.2219,4.2218,4.2217,4.2216,0,4.0905,4.0975,4.1114,4.1232,4.1265,4.1346,4.1449,4.1526,4.1584,4.17,4.173,4.1823,4.1939,4.2011,4.2158,4.2193,4.2333,4.2341,4.2298,4.2305,4.2369,4.2363,4.2558,4.2588,4.2449,4.245,4.2451,0,4.0978,4.1058,4.1185,4.1249,4.1309,4.141,4.148,4.1547,4.1618,4.1741,4.1804,4.1922,4.202,4.2203,4.2285,4.2398,4.2412,4.2472,4.2429,4.2413,4.2417,4.2413,4.2423,4.248,4.2481,4.2482,4.2483,0,4.1101,4.1132,4.1231,4.1342,4.1424,4.1516,4.1607,4.1657,4.1739,4.1818,4.1936,4.2012,4.2162,4.228,4.24,4.2464,4.2489,4.2495,4.2518,4.2505,4.2479,4.2498,4.2322,4.2491,4.2491,4.249,4.2489,4.2489,4.118,4.1254,4.1356,4.1465,4.1541,4.1626,4.1705,4.1774,4.1873,4.2,4.2033,4.2158,4.226,4.2425,4.2491,4.2591,4.2583,4.2614,4.2622,4.263,4.2633,4.246,4.2613,4.2612,4.2612,4.2612,4.2612,0,4.1308,4.1375,4.1475,4.1602,4.1689,4.1702,4.1804,4.1876,4.1985,4.2078,4.2174,4.2311,4.2426,4.2517,4.2635,4.2698,4.2712,4.2727,4.2725,4.274,4.2631,4.2602,4.2714,4.2714,4.2714,4.2714,4.2713,4.2713,4.1385,4.1512,4.1556,4.1722,4.1789,4.1911,4.1969,4.2048,4.2123,4.2274,4.237,4.2427,4.2521,4.2646,4.2753,4.2777,4.2821,4.2834,4.286,4.2758,4.2747,4.2737,4.271,4.2842,4.2842,4.2961,4.2962,4.2963]}]]